TimeEDT,TemperatureF,Dew PointF,Humidity,Sea Level PressureIn,VisibilityMPH,Wind Direction,Wind SpeedMPH,Gust SpeedMPH,PrecipitationIn,Events,Conditions,WindDirDegrees,DateUTC
12:53 AM,57.9,55.0,90,29.74,10.0,SE,9.2,-,N/A,,Overcast,140,2013-05-11 04:53:00
1:53 AM,57.9,57.0,97,29.73,6.0,Calm,Calm,-,0.02,Rain,Light Rain,0,2013-05-11 05:53:00
2:53 AM,57.9,55.9,93,29.70,9.0,SSE,9.2,-,0.02,Rain,Light Rain,160,2013-05-11 06:53:00
3:53 AM,59.0,57.9,96,29.68,5.0,SSE,10.4,-,0.06,Rain,Rain,160,2013-05-11 07:53:00
4:53 AM,59.0,57.9,96,29.66,7.0,SSE,8.1,-,0.04,Rain,Light Rain,160,2013-05-11 08:53:00
5:53 AM,59.0,57.9,96,29.65,8.0,SSE,8.1,-,0.01,Rain,Light Rain,160,2013-05-11 09:53:00
6:53 AM,60.1,59.0,96,29.65,7.0,SSE,5.8,-,0.00,Rain,Light Rain,150,2013-05-11 10:53:00
7:53 AM,61.0,59.0,93,29.65,8.0,Calm,Calm,-,0.00,Rain,Light Rain,0,2013-05-11 11:53:00
8:02 AM,60.8,59.0,94,29.64,2.5,Calm,Calm,-,0.00,Rain,Light Rain,0,2013-05-11 12:02:00
8:35 AM,60.8,59.0,94,29.64,1.5,ESE,6.9,-,0.02,Rain,Light Rain,110,2013-05-11 12:35:00
8:39 AM,60.8,59.0,94,29.64,2.5,ESE,8.1,-,0.02,Rain,Light Rain,110,2013-05-11 12:39:00
8:48 AM,60.8,60.8,100,29.63,4.0,SE,8.1,-,0.02,Rain,Light Rain,130,2013-05-11 12:48:00
8:53 AM,61.0,60.1,97,29.63,5.0,SE,6.9,-,0.02,Rain,Light Rain,140,2013-05-11 12:53:00
9:29 AM,64.4,60.8,88,29.62,10.0,SE,9.2,-,N/A,,Mostly Cloudy,140,2013-05-11 13:29:00
9:39 AM,64.4,60.8,88,29.62,10.0,SE,9.2,-,N/A,,Mostly Cloudy,140,2013-05-11 13:39:00
9:53 AM,64.0,60.1,87,29.62,10.0,SE,8.1,-,N/A,,Mostly Cloudy,140,2013-05-11 13:53:00
10:00 AM,64.4,60.8,88,29.61,10.0,SE,8.1,-,N/A,,Mostly Cloudy,140,2013-05-11 14:00:00
10:51 AM,66.2,60.8,83,29.61,10.0,SSE,11.5,-,0.01,,Mostly Cloudy,150,2013-05-11 14:51:00
10:53 AM,66.9,60.1,79,29.61,10.0,SSE,10.4,-,0.01,,Mostly Cloudy,150,2013-05-11 14:53:00
11:53 AM,66.9,60.1,79,29.60,10.0,SSE,12.7,-,N/A,,Overcast,150,2013-05-11 15:53:00
12:53 PM,66.9,59.0,76,29.59,10.0,SSE,9.2,19.6,N/A,,Overcast,160,2013-05-11 16:53:00
1:53 PM,68.0,63.0,84,29.59,10.0,South,5.8,-,0.00,Rain,Light Rain,180,2013-05-11 17:53:00
2:53 PM,69.1,54.0,58,29.59,10.0,West,9.2,19.6,0.00,,Clear,270,2013-05-11 18:53:00
3:53 PM,64.9,51.1,61,29.62,10.0,West,9.2,-,N/A,,Clear,280,2013-05-11 19:53:00
4:53 PM,63.0,48.0,58,29.63,10.0,Variable,6.9,21.9,N/A,,Clear,0,2013-05-11 20:53:00
5:53 PM,60.1,46.9,62,29.65,10.0,WNW,9.2,19.6,N/A,,Clear,290,2013-05-11 21:53:00
6:53 PM,61.0,46.9,60,29.67,10.0,WSW,5.8,-,N/A,,Clear,240,2013-05-11 22:53:00
7:53 PM,57.0,46.0,67,29.69,10.0,WNW,6.9,-,N/A,,Scattered Clouds,290,2013-05-11 23:53:00
8:53 PM,55.0,45.0,69,29.70,10.0,WNW,5.8,-,N/A,,Clear,290,2013-05-12 00:53:00
10:53 PM,52.0,44.1,74,29.70,10.0,Calm,Calm,-,N/A,,Clear,0,2013-05-12 02:53:00
11:53 PM,52.0,44.1,74,29.70,10.0,West,4.6,-,N/A,,Clear,270,2013-05-12 03:53:00